Location: Sabalos
(43.2860°N, 0.1414°E)
Time: 10:56:42
(UTC+00:00)

SL-16 R/B - Pass Details

Date: 05 July 2020
Orbit: 842 x 846 km, 71.0° (Epoch: 05 August)

Event Time Altitude Azimuth Distance (km) Brightness Sun altitude
Rises 20:48:34 0° 226° (SW) 3,390 5.4 -10.2°
Reaches altitude 10° 20:51:09 10° 234° (SW) 2,460 4.7 -10.5°
Maximum altitude 20:56:26 40° 303° (WNW) 1,236 3.7 -11.2°
Drops below altitude 10° 21:01:45 10° 12° (NNE) 2,476 5.1 -11.9°
Sets 21:04:23 0° 20° (NNE) 3,415 5.8 -12.2°
